#timestamp,LO_Frequency,Hit,StdDev 
1634936415.2,286047002.9,N
1634936435.0,286047003.0,N
1634936435.9,286047003.0,N
1634936455.8,286047004.4,N
1634936475.6,286047000.3,N
1634936495.4,286047000.9,N
1634936515.3,286046999.0,N
1634936535.1,286047002.8,N
1634936555.8,286047001.4,N
1634936575.7,286047004.9,N
1634936595.5,286047006.1,Y
1634936615.4,286047006.9,P
1634936635.2,286047003.4,N
1634936655.0,286047007.6,P
1634936655.9,286047007.6,Y
1634936675.8,286047000.2,P
1634936695.6,286046998.2,N
1634936715.4,286046997.4,N
1634936735.3,286046993.5,N
1634936755.1,286046995.0,N
1634936775.9,286046996.6,N
1634936795.7,286047002.3,N
1634936815.5,286047002.5,N
1634936835.4,286047004.2,N
1634936855.2,286047003.8,N
1634936875.1,286046999.7,N
1634936876.0,286046999.7,N
1634936895.8,286047001.2,N
1634936915.6,286046997.9,N
1634936935.5,286046997.4,N
1634936955.3,286046996.6,N
1634936975.1,286046999.1,N
1634936995.9,286046997.5,N
1634937015.7,286046997.9,N
1634937035.6,286046994.6,N
1634937055.4,286046996.4,N
1634937075.2,286046994.5,N
1634937095.1,286046991.9,N
1634937096.0,286046991.9,N
1634937115.8,286046993.1,N
1634937165.7,286046989.5,E
1634937175.6,286046993.5,N
1634937195.5,286047000.4,P
1634937215.3,286047000.7,N
1634937235.1,286046997.7,N
1634937255.9,286046995.4,N
1634937275.7,286046999.5,N
1634937295.5,286046998.5,N
1634937315.4,286046999.6,N
1634937335.2,286046997.2,N
1634937355.1,286046997.5,N
1634937356.0,286046997.5,N
1634937375.8,286046997.5,N
1634937395.6,286046997.4,N
1634937415.5,286046999.0,N
1634937435.3,286046997.6,N
1634937455.1,286046999.1,N
1634937475.9,286046996.4,N
1634937495.7,286046993.4,Y
1634937515.6,286046999.0,P
1634937535.4,286047000.7,N
1634937555.2,286046998.3,N
1634937575.1,286046997.1,N
1634937576.0,286046997.1,N
1634937595.8,286046996.8,N
1634937615.7,286047001.9,N
1634937635.5,286047000.7,N
1634937655.3,286047001.1,N
1634937675.2,286046999.3,N
1634937695.0,286047000.9,N
1634937695.9,286047000.9,N
1634937715.7,286046999.8,N
1634937735.6,286047000.7,N
1634937755.4,286047000.8,N
1634937775.3,286047000.3,N
1634937795.1,286046999.8,N
1634937796.0,286046999.8,N
1634937815.8,286047002.4,N
1634937835.7,286046998.3,N
1634937855.5,286046997.1,N
1634937875.3,286046998.2,N
1634937895.2,286046999.0,N
1634937915.0,286046999.6,N
1634937915.9,286046999.6,N
1634937935.8,286046998.1,N
1634937955.6,286047002.1,N
1634937975.4,286047001.6,N
1634937995.3,286047002.3,N
1634938015.1,286047000.4,N
1634938035.9,286046999.0,N
1634938055.7,286046999.1,N
1634938075.5,286046996.9,N
1634938095.4,286046997.9,N
1634938115.2,286046996.7,N
1634938135.0,286046997.8,N
1634938135.9,286046997.8,N
1634938155.8,286046997.0,N
1634938175.6,286046996.8,N
1634938195.5,286046998.7,N
1634938215.3,286047002.1,N
1634938235.1,286047001.7,N
1634938255.9,286047002.4,N
1634938275.7,286046999.8,N
1634938295.5,286047000.7,N
1634938315.4,286046996.9,N
1634938335.2,286047001.2,N
1634938355.1,286046999.7,N
1634938356.0,286046999.7,N
1634938375.8,286047002.1,N
1634938395.6,286047001.5,N
1634938415.5,286047002.2,N
1634938435.3,286047000.5,N
1634938455.1,286046998.2,N
1634938475.9,286047000.4,N
1634938495.7,286047000.2,N
1634938515.6,286047002.4,N
1634938535.4,286047001.2,N
1634938555.2,286046998.7,N
1634938575.1,286047003.8,N
1634938576.0,286047003.8,N
1634938595.8,286047009.1,Y
1634938615.7,286047008.9,P
1634938635.5,286047009.9,N
1634938655.3,286047010.1,N
1634938675.2,286047011.0,N
1634938695.0,286047015.3,Y
1634938695.9,286047015.3,P
1634938715.8,286047005.9,N
1634938735.6,286047003.9,N
1634938755.4,286047004.2,N
1634938775.3,286047001.8,N
1634938795.1,286047001.0,N
1634938815.8,286047001.1,N
1634938835.7,286046998.2,N
1634938855.5,286047001.1,N
1634938875.4,286047002.5,N
1634938895.2,286047001.6,N
1634938915.0,286047003.9,N
1634938915.9,286047003.9,N
1634938935.8,286047004.3,N
1634938955.6,286047005.4,N
1634938975.4,286047001.7,N
1634938995.3,286047003.6,N
1634939015.1,286047003.6,N
1634939035.9,286047001.3,N
1634939055.7,286047006.1,N
1634939075.5,286047002.9,N
1634939095.4,286046998.2,N
1634939115.2,286046998.3,N
1634939135.0,286047000.2,N
1634939135.9,286047000.2,N
1634939155.8,286047000.4,N
1634939175.6,286047003.4,N
1634939195.5,286047003.4,N
1634939215.3,286047005.6,N
1634939235.1,286047005.0,N
1634939255.9,286047004.3,N
1634939275.7,286047004.4,N
1634939295.5,286047003.8,N
1634939315.4,286047004.5,N
1634939335.2,286047006.3,N
1634939355.1,286047008.8,Y
1634939356.0,286047008.8,P
1634939375.8,286047006.0,N
1634939395.6,286047003.4,N
1634939415.5,286047005.6,N
1634939435.3,286047008.3,Y
1634939455.2,286047005.7,P
1634939475.9,286047005.4,P
1634939495.7,286047003.2,P
1634939515.6,286047005.3,Y
1634939535.4,286047000.7,P
1634939555.2,286047003.9,N
1634939575.1,286047006.0,P
1634939576.0,286047006.0,Y
1634939595.8,286046999.8,P
1634939615.7,286047004.0,N
1634939635.5,286046998.6,N
1634939655.3,286046998.6,N
1634939675.2,286046998.8,N
1634939695.0,286046998.7,N
1634939695.9,286046998.7,N
1634939715.8,286047002.8,N
1634939735.6,286047000.6,N
1634939755.4,286047002.8,N
1634939775.3,286047002.5,N
1634939795.1,286047004.1,N
1634939815.8,286047004.3,N
1634939835.7,286047002.7,N
1634939855.5,286047004.2,N
1634939875.4,286047002.9,N
1634939895.2,286047004.5,N
1634939915.0,286047005.0,N
1634939915.9,286047005.0,N
1634939935.8,286047001.3,N
1634939955.6,286047001.3,N
1634939975.4,286047006.0,N
1634939995.3,286047003.7,N
